G4ZMG Weather Reports


time (UTC)temp
C
wind
direction
speed
KPH
gust
KPH
rain 1hr
cm
rain 24hr
cm
rain mn
cm
humidity
%
barometer
mb
20260508050038 8 231 0.0 0.0 0.00 0.00 0.00 81 1014.1
20260508045030 8 231 0.0 0.0 0.00 0.00 0.00 80 1014.1
20260508044010 8 231 0.0 0.0 0.00 0.00 0.00 80 1014.1
20260508043004 8 231 0.0 0.0 0.00 0.00 0.00 79 1014.1
20260508042046 8 231 0.0 0.0 0.00 0.00 0.00 79 1014.1
20260508041041 8 231 0.0 0.0 0.00 0.00 0.00 79 1014.1
20260508040033 8 222 0.0 0.0 0.00 0.00 0.00 79 1014.1
20260508035021 8 222 0.0 0.0 0.00 0.00 0.00 78 1014.2
20260508034003 8 222 0.0 0.0 0.00 0.00 0.00 78 1014.1
20260508032959 9 221 0.0 0.0 0.00 0.00 0.00 78 1014.2
20260508032045 9 221 0.0 0.0 0.00 0.00 0.00 78 1014.1
20260508031040 9 221 0.0 0.0 0.00 0.00 0.00 77 1014.1
20260508030042 9 221 0.0 0.0 0.00 0.00 0.00 77 1014.1
20260508025037 9 221 0.0 0.0 0.00 0.00 0.00 76 1014.1
20260508024031 9 219 0.0 0.0 0.00 0.00 0.00 76 1014.1
20260508023025 9 217 0.0 0.0 0.00 0.00 0.00 75 1014.0
20260508022003 9 217 0.0 0.0 0.00 0.00 0.00 74 1013.9
20260508021044 9 217 0.0 0.0 0.00 0.00 0.00 74 1014.0
20260508020049 9 220 0.0 1.6 0.00 0.00 0.00 74 1014.0
20260508015044 9 220 0.0 0.0 0.00 0.00 0.00 74 1014.1
20260508014036 10 210 0.0 0.0 0.00 0.00 0.00 74 1014.1
20260508013020 9 220 0.0 1.6 0.00 0.00 0.00 75 1014.1
20260508012007 9 195 0.0 3.2 0.00 0.00 0.00 76 1014.0
20260508011046 9 222 0.0 0.0 0.00 0.00 0.00 78 1014.1
20260508010042 10 211 0.0 0.0 0.00 0.00 0.00 78 1014.1
20260508005038 10 200 0.0 0.0 0.00 0.00 0.00 79 1014.1
20260508004027 10 199 0.0 0.0 0.00 0.00 0.00 80 1014.2
20260508003012 10 198 0.0 0.0 0.00 0.00 0.00 80 1014.2
20260508002007 10 197 0.0 0.0 0.00 0.00 0.00 79 1014.2
20260508001043 10 197 0.0 0.0 0.00 0.00 0.00 79 1014.1
20260508000011 10 197 0.0 0.0 0.00 0.00 0.00 79 1014.0
20260507235041 10 197 0.0 0.0 0.00 0.00 0.00 79 1014.1
20260507234023 10 194 0.0 0.0 0.00 0.00 0.00 79 1014.2
20260507233003 10 206 0.0 0.0 0.00 0.00 0.00 79 1014.2
20260507232037 10 218 0.0 0.0 0.00 0.00 0.00 79 1014.1
20260507231024 10 218 0.0 0.0 0.00 0.00 0.00 79 1014.1
20260507230006 10 218 0.0 0.0 0.00 0.00 0.00 79 1014.1
20260507225036 10 175 0.0 0.0 0.00 0.00 0.00 79 1014.1
20260507224019 10 175 0.0 0.0 0.00 0.00 0.00 79 1014.1
20260507223039 10 175 0.0 0.0 0.00 0.00 0.00 79 1014.2
20260507222030 10 175 0.0 0.0 0.00 0.00 0.00 78 1014.1
20260507221009 10 175 0.0 0.0 0.00 0.00 0.00 78 1014.1
20260507220042 10 175 0.0 0.0 0.00 0.00 0.00 78 1014.2
20260507215026 10 175 0.0 0.0 0.00 0.00 0.00 78 1014.2
20260507214009 10 175 0.0 0.0 0.00 0.00 0.00 78 1014.2
20260507213038 10 175 0.0 0.0 0.00 0.00 0.00 77 1014.1
20260507212023 10 175 0.0 0.0 0.00 0.00 0.00 77 1014.1
20260507211006 10 175 0.0 0.0 0.00 0.00 0.00 77 1014.1
20260507210011 11 175 0.0 0.0 0.00 0.00 0.00 77 1014.0
20260507205003 11 175 0.0 0.0 0.00 0.00 0.00 77 1014.0
20260507204041 11 175 0.0 0.0 0.00 0.00 0.00 76 1013.9
20260507203025 11 175 0.0 0.0 0.00 0.00 0.00 76 1013.8
20260507202045 11 175 0.0 0.0 0.00 0.00 0.00 75 1013.7
20260507201030 11 175 0.0 0.0 0.00 0.00 0.00 75 1013.7
20260507200005 11 175 0.0 0.0 0.00 0.00 0.00 75 1013.6
20260507195039 11 254 0.0 0.0 0.00 0.00 0.00 74 1013.5
20260507194026 11 277 0.0 0.0 0.00 0.00 0.00 73 1013.4
20260507193003 12 247 0.0 0.0 0.00 0.00 0.00 72 1013.4
20260507192038 12 303 0.0 0.0 0.00 0.00 0.00 71 1013.3
20260507191024 12 206 0.0 0.0 0.00 0.00 0.00 70 1013.3
20260507190041 12 207 0.0 0.0 0.00 0.00 0.00 69 1013.3
20260507185029 12 214 0.0 6.4 0.00 0.00 0.00 68 1013.3
20260507184015 12 210 0.0 14.5 0.00 0.00 0.00 68 1013.3
20260507183040 12 215 0.0 0.0 0.00 0.00 0.00 69 1013.4
20260507182030 12 214 0.0 1.6 0.00 0.00 0.00 70 1013.3
20260507181008 12 175 0.0 1.6 0.00 0.00 0.00 69 1013.3
20260507180031 12 170 0.0 0.0 0.00 0.00 0.00 68 1013.1
20260507175044 13 209 0.0 0.0 0.00 0.00 0.00 68 1013.1
20260507174028 13 175 0.0 0.0 0.00 0.00 0.00 68 1013.0
20260507173011 13 159 0.0 1.6 0.00 0.00 0.00 67 1013.1
20260507172041 13 175 0.0 0.0 0.00 0.00 0.00 66 1013.1
20260507171032 13 175 0.0 3.2 0.00 0.00 0.00 65 1013.1
20260507170041 13 193 0.0 3.2 0.00 0.00 0.00 64 1013.2
20260507165027 13 185 0.0 1.6 0.00 0.00 0.00 64 1013.3
20260507164003 13 199 0.0 9.7 0.00 0.00 0.00 63 1013.1
20260507163032 13 189 0.0 3.2 0.00 0.00 0.00 62 1013.2
20260507162006 13 204 0.0 1.6 0.00 0.00 0.00 61 1013.1
20260507161041 14 208 0.0 3.2 0.00 0.00 0.00 60 1013.1
20260507160004 14 213 0.0 4.8 0.00 0.00 0.00 61 1013.1
20260507155044 14 193 0.0 0.0 0.00 0.00 0.00 60 1013.0
20260507154027 14 199 0.0 3.2 0.00 0.00 0.00 61 1013.1
20260507153047 14 210 0.0 0.0 0.00 0.00 0.00 62 1013.1
20260507152028 14 160 0.0 6.4 0.00 0.00 0.00 61 1013.2
20260507151004 14 200 0.0 3.2 0.00 0.00 0.00 60 1013.1
20260507150043 14 170 0.0 6.4 0.00 0.00 0.00 60 1013.2
20260507145029 14 175 0.0 0.0 0.00 0.00 0.00 59 1013.3
20260507144003 14 215 0.0 0.0 0.00 0.00 0.00 57 1013.3
20260507143037 15 206 0.0 0.0 0.00 0.00 0.00 56 1013.3
20260507142023 15 175 0.0 8.0 0.00 0.00 0.00 56 1013.4
20260507141048 15 121 0.0 1.6 0.00 0.00 0.00 59 1013.4
20260507140027 14 129 0.0 0.0 0.00 0.00 0.00 59 1013.5
20260507135010 15 140 0.0 0.0 0.00 0.00 0.00 60 1013.6
20260507134050 15 175 0.0 3.2 0.00 0.00 0.00 59 1013.6
20260507133039 15 160 0.0 1.6 0.00 0.00 0.00 60 1013.7
20260507132031 15 204 0.0 1.6 0.00 0.00 0.00 61 1013.7
20260507131006 15 175 0.0 4.8 0.00 0.00 0.00 58 1013.7
20260507130011 15 145 0.0 3.2 0.00 0.00 0.00 59 1013.8
20260507125038 16 147 0.0 8.0 0.00 0.00 0.00 56 1013.8
20260507124023 15 168 0.0 6.4 0.00 0.00 0.00 60 1013.8
20260507123036 15 175 0.0 9.7 0.00 0.00 0.00 61 1013.9
20260507122013 14 91 0.0 9.7 0.00 0.00 0.00 64 1013.9
20260507121045 15 118 0.0 4.8 0.00 0.00 0.00 65 1014.1
20260507120042 15 175 0.0 1.6 0.00 0.00 0.00 65 1014.1
20260507115029 14 202 0.0 0.0 0.00 0.00 0.00 67 1014.1
20260507114038 14 238 0.0 3.2 0.00 0.00 0.00 67 1014.2
20260507113038 13 199 0.0 0.0 0.00 0.00 0.00 71 1014.2
20260507112022 13 99 0.0 0.0 0.00 0.00 0.00 68 1014.4
20260507111003 13 240 0.0 1.6 0.00 0.00 0.00 74 1014.5
20260507110040 13 140 0.0 1.6 0.00 0.00 0.00 74 1014.6
20260507105026 12 175 0.0 1.6 0.00 0.00 0.00 76 1014.8
20260507104003 11 74 0.0 0.0 0.00 0.00 0.00 78 1014.5
20260507103036 11 77 0.0 0.0 0.00 0.00 0.00 78 1014.7
20260507102023 11 145 0.0 0.0 0.00 0.00 0.00 79 1014.8
20260507101003 10 185 0.0 0.0 0.00 0.00 0.00 80 1015.0
20260507100010 10 192 0.0 0.0 0.00 0.00 0.00 81 1014.9
20260507095044 10 191 0.0 0.0 0.00 0.00 0.00 82 1015.0
20260507094029 10 210 0.0 0.0 0.00 0.00 0.00 83 1015.0
20260507093005 9 212 0.0 0.0 0.00 0.00 0.00 84 1014.9
20260507092043 8 157 0.0 0.0 0.00 0.00 0.00 85 1014.9
20260507091028 8 213 0.0 0.0 0.00 0.00 0.00 86 1014.9
20260507090025 8 0.0 0.0 0.00 0.00 0.00 87 1014.9
20260507085005 -17 0.0 0.0 0.00 0.00 0.00 1015.0
20260507084027 -17 0.0 0.0 0.00 0.00 0.00 1015.0
20260507083007 -17 0.0 0.0 0.00 0.00 0.00 1015.0
20260507082043 -17 0.0 0.0 0.00 0.00 0.00 1014.9
20260507081027 -17 0.0 0.0 0.00 0.00 0.00 1014.9
20260507080030 -17 0.0 0.0 0.00 0.00 0.00 1014.8
20260507075012 -17 0.0 0.0 0.00 0.00 0.00 1014.8
20260507074010 6 293 0.0 0.0 0.00 0.00 0.00 91 1014.7
20260507073002 6 293 0.0 0.0 0.00 0.00 0.00 91 1014.7
20260507072030 6 291 0.0 0.0 0.00 0.00 0.00 91 1014.8
20260507071013 6 290 0.0 0.0 0.00 0.00 0.00 91 1014.6
20260507070046 6 290 0.0 0.0 0.00 0.00 0.00 92 1014.6
20260507065031 6 290 0.0 0.0 0.00 0.00 0.00 92 1014.7
20260507064010 6 289 0.0 0.0 0.00 0.00 0.00 92 1014.5
20260507063002 6 289 0.0 0.0 0.00 0.00 0.00 92 1014.5
20260507062043 5 289 0.0 0.0 0.00 0.00 0.00 92 1014.5
20260507061022 5 289 0.0 0.0 0.00 0.00 0.00 92 1014.5
20260507060027 5 0.0 0.0 0.00 0.00 0.00 92 1014.4
20260507055006 5 0.0 0.0 0.00 0.00 0.00 92 1014.4
20260507054030 5 0.0 0.0 0.00 0.00 0.00 92 1014.4
20260507053007 5 0.0 0.0 0.00 0.00 0.00 92 1014.3
20260507052043 5 0.0 0.0 0.00 0.00 0.00 92 1014.3
20260507051026 -17 0.0 0.0 0.00 0.00 0.00 1014.3